Powrót do katalogu

DELTA 4 R/B

AktywnyMEO
NORAD 38529·ROCKET BODY·🇺🇸 United States

Wystrzelony Jun 29, 2012 z Cape Canaveral Space Force Station

Loading…

Następne Przeloty (najbliższe 24 godziny)

TLE

ŚwieżeSource: Space-Track

Epoka: Sep 14, 2026, 11:38 UTC

1 38529U 12034B   26257.48485387 -.00000272  00000-0  00000+0 0  9997
2 38529   7.1661  58.8326 0195374 182.2482 177.8168  1.03152093 27560

Śledź DELTA 4 R/B w czasie rzeczywistym z AllMySat

Download on the App Store